Location: Unspecified
(0.0000°N, 0.0000°E)
Time: 04:01:37
(UTC+00:00)

DMSP 5D-3 F18 (USA 210) - Pass Details

Date: 22 February 2019
Orbit: 840 x 856 km, 98.6° (Epoch: 20 October)

Event Time Altitude Azimuth Distance (km) Brightness Sun altitude
Rises 04:47:15 0° 31° (NNE) 3,411 8.1 -21.2°
Reaches altitude 10° 04:49:52 10° 41° (NE) 2,476 7.5 -20.6°
Maximum altitude 04:54:43 32° 103° (ESE) 1,414 6.6 -19.4°
Drops below altitude 10° 04:59:34 10° 165° (SSE) 2,477 7.5 -18.2°
Sets 05:02:09 0° 174° (S) 3,413 8.1 -17.6°
